Year,Month,Day,Hour,Minute,Value (Times are PST for windspeed in km/hr)
2017,06,10,00,00,1.60
2017,06,10,00,01,3.40
2017,06,10,00,02,3.60
2017,06,10,00,03,3.40
2017,06,10,00,04,2.10
2017,06,10,00,05,2.20
2017,06,10,00,06,1.60
2017,06,10,00,07,1.90
2017,06,10,00,08,2.80
2017,06,10,00,09,3.80
2017,06,10,00,10,3.30
2017,06,10,00,11,3.10
2017,06,10,00,12,1.70
2017,06,10,00,13,3.70
2017,06,10,00,14,4.10
2017,06,10,00,15,2.40
2017,06,10,00,16,2.40
2017,06,10,00,17,3.30
2017,06,10,00,18,2.30
2017,06,10,00,19,2.20
2017,06,10,00,20,2.20
2017,06,10,00,21,1.20
2017,06,10,00,22,1.80
2017,06,10,00,23,2.30
2017,06,10,00,24,2.90
2017,06,10,00,25,3.80
2017,06,10,00,26,3.90
2017,06,10,00,27,3.70
2017,06,10,00,28,2.90
2017,06,10,00,29,1.90
2017,06,10,00,30,1.30
2017,06,10,00,31,0.00
2017,06,10,00,32,0.00
2017,06,10,00,33,1.80
2017,06,10,00,34,1.90
2017,06,10,00,35,2.40
2017,06,10,00,36,1.80
2017,06,10,00,37,2.80
2017,06,10,00,38,2.20
2017,06,10,00,39,1.80
2017,06,10,00,40,2.70
2017,06,10,00,41,2.30
2017,06,10,00,42,2.40
2017,06,10,00,43,1.90
2017,06,10,00,44,1.50
2017,06,10,00,45,1.30
2017,06,10,00,46,1.40
2017,06,10,00,47,2.80
2017,06,10,00,48,2.70
2017,06,10,00,49,3.20
2017,06,10,00,50,2.40
2017,06,10,00,51,1.80
2017,06,10,00,52,1.20
2017,06,10,00,53,2.50
2017,06,10,00,54,1.60
2017,06,10,00,55,1.60
2017,06,10,00,56,1.50
2017,06,10,00,57,1.00
2017,06,10,00,58,1.80
2017,06,10,00,59,0.30
2017,06,10,01,00,0.00
2017,06,10,01,01,0.00
2017,06,10,01,02,0.00
2017,06,10,01,03,0.00
2017,06,10,01,04,0.20
2017,06,10,01,05,1.30
2017,06,10,01,06,1.80
2017,06,10,01,07,2.80
2017,06,10,01,08,1.60
2017,06,10,01,09,2.70
2017,06,10,01,10,2.40
2017,06,10,01,11,2.70
2017,06,10,01,12,1.50
2017,06,10,01,13,1.70
2017,06,10,01,14,2.30
2017,06,10,01,15,0.90
2017,06,10,01,16,1.90
2017,06,10,01,17,2.00
2017,06,10,01,18,1.00
2017,06,10,01,19,2.00
2017,06,10,01,20,1.80
2017,06,10,01,21,1.50
2017,06,10,01,22,2.00
2017,06,10,01,23,3.30
2017,06,10,01,24,3.10
2017,06,10,01,25,2.90
2017,06,10,01,26,3.10
2017,06,10,01,27,4.90
2017,06,10,01,28,5.10
2017,06,10,01,29,2.60
2017,06,10,01,30,4.20
2017,06,10,01,31,3.40
2017,06,10,01,32,2.10
2017,06,10,01,33,0.30
2017,06,10,01,34,4.10
2017,06,10,01,35,2.10
2017,06,10,01,36,0.90
2017,06,10,01,37,2.40
2017,06,10,01,38,1.90
2017,06,10,01,39,0.60
2017,06,10,01,40,1.50
2017,06,10,01,41,0.10
2017,06,10,01,42,0.30
2017,06,10,01,43,1.80
2017,06,10,01,44,2.30
2017,06,10,01,45,3.40
2017,06,10,01,46,3.70
2017,06,10,01,47,2.50
2017,06,10,01,48,1.50
2017,06,10,01,49,1.50
2017,06,10,01,50,3.50
2017,06,10,01,51,3.20
2017,06,10,01,52,3.20
2017,06,10,01,53,3.20
2017,06,10,01,54,3.20
2017,06,10,01,55,3.20
2017,06,10,01,56,3.20
2017,06,10,01,57,3.00
2017,06,10,01,58,2.60
2017,06,10,01,59,3.80
2017,06,10,02,00,3.80
2017,06,10,02,01,2.70
2017,06,10,02,02,3.10
2017,06,10,02,03,3.20
2017,06,10,02,04,3.70
2017,06,10,02,05,4.10
2017,06,10,02,06,3.10
2017,06,10,02,07,3.70
2017,06,10,02,08,2.80
2017,06,10,02,09,2.30
2017,06,10,02,10,2.00
2017,06,10,02,11,3.20
2017,06,10,02,12,1.80
2017,06,10,02,13,3.30
2017,06,10,02,14,2.40
2017,06,10,02,15,2.60
2017,06,10,02,16,2.60
2017,06,10,02,17,4.10
2017,06,10,02,18,2.90
2017,06,10,02,19,3.40
2017,06,10,02,20,3.40
2017,06,10,02,21,4.40
2017,06,10,02,22,4.10
2017,06,10,02,23,3.20
2017,06,10,02,24,2.30
2017,06,10,02,25,1.50
2017,06,10,02,26,2.90
2017,06,10,02,27,2.80
2017,06,10,02,28,3.40
2017,06,10,02,29,2.60
2017,06,10,02,30,2.30
2017,06,10,02,31,2.40
2017,06,10,02,32,2.10
2017,06,10,02,33,2.90
2017,06,10,02,34,4.00
2017,06,10,02,35,2.30
2017,06,10,02,36,1.80
2017,06,10,02,37,3.30
2017,06,10,02,38,3.80
2017,06,10,02,39,1.80
2017,06,10,02,40,2.40
2017,06,10,02,41,3.70
2017,06,10,02,42,2.80
2017,06,10,02,43,3.10
2017,06,10,02,44,3.00
2017,06,10,02,45,2.10
2017,06,10,02,46,2.80
2017,06,10,02,47,2.40
2017,06,10,02,48,1.70
2017,06,10,02,49,3.40
2017,06,10,02,50,2.10
2017,06,10,02,51,2.60
2017,06,10,02,52,2.00
2017,06,10,02,53,3.60
2017,06,10,02,54,3.40
2017,06,10,02,55,3.70
2017,06,10,02,56,3.90
2017,06,10,02,57,5.10
2017,06,10,02,58,5.20
2017,06,10,02,59,4.20
2017,06,10,03,00,4.20
2017,06,10,03,01,4.40
2017,06,10,03,02,4.40
2017,06,10,03,03,2.10
2017,06,10,03,04,3.40
2017,06,10,03,05,2.70
2017,06,10,03,06,3.80
2017,06,10,03,07,1.80
2017,06,10,03,08,3.40
2017,06,10,03,09,3.70
2017,06,10,03,10,4.40
2017,06,10,03,11,3.70
2017,06,10,03,12,4.00
2017,06,10,03,13,3.60
2017,06,10,03,14,2.90
2017,06,10,03,15,3.40
2017,06,10,03,16,5.50
2017,06,10,03,17,4.90
2017,06,10,03,18,3.90
2017,06,10,03,19,3.10
2017,06,10,03,20,2.60
2017,06,10,03,21,4.50
2017,06,10,03,22,5.70
2017,06,10,03,23,4.50
2017,06,10,03,24,5.10
2017,06,10,03,25,5.40
2017,06,10,03,26,5.30
2017,06,10,03,27,5.50
2017,06,10,03,28,5.30
2017,06,10,03,29,5.60
2017,06,10,03,30,5.20
2017,06,10,03,31,4.70
2017,06,10,03,32,5.90
2017,06,10,03,33,5.50
2017,06,10,03,34,6.60
2017,06,10,03,35,6.40
2017,06,10,03,36,5.20
2017,06,10,03,37,5.10
2017,06,10,03,38,4.80
2017,06,10,03,39,5.70
2017,06,10,03,40,7.10
2017,06,10,03,41,6.30
2017,06,10,03,42,4.60
2017,06,10,03,43,4.60
2017,06,10,03,44,3.20
2017,06,10,03,45,2.90
2017,06,10,03,46,3.70
2017,06,10,03,47,2.90
2017,06,10,03,48,3.60
2017,06,10,03,49,3.80
2017,06,10,03,50,3.40
2017,06,10,03,51,3.70
2017,06,10,03,52,2.60
2017,06,10,03,53,2.60
2017,06,10,03,54,2.90
2017,06,10,03,55,3.10
2017,06,10,03,56,2.20
2017,06,10,03,57,1.80
2017,06,10,03,58,2.00
2017,06,10,03,59,0.60
2017,06,10,04,00,0.70
2017,06,10,04,01,2.40
2017,06,10,04,02,1.30
2017,06,10,04,03,1.60
2017,06,10,04,04,1.50
2017,06,10,04,05,1.30
2017,06,10,04,06,0.30
2017,06,10,04,07,0.00
2017,06,10,04,08,0.10
2017,06,10,04,09,0.00
2017,06,10,04,10,0.10
2017,06,10,04,11,0.20
2017,06,10,04,12,0.90
2017,06,10,04,13,0.90
2017,06,10,04,14,0.80
2017,06,10,04,15,0.50
2017,06,10,04,16,0.20
2017,06,10,04,17,1.20
2017,06,10,04,18,0.20
2017,06,10,04,19,0.40
2017,06,10,04,20,2.40
2017,06,10,04,21,2.30
2017,06,10,04,22,2.80
2017,06,10,04,23,3.10
2017,06,10,04,24,2.80
2017,06,10,04,25,2.80
2017,06,10,04,26,2.50
2017,06,10,04,27,3.40
2017,06,10,04,28,3.70
2017,06,10,04,29,2.80
2017,06,10,04,30,2.00
2017,06,10,04,31,1.70
2017,06,10,04,32,1.70
2017,06,10,04,33,1.80
2017,06,10,04,34,0.90
2017,06,10,04,35,0.10
2017,06,10,04,36,0.20
2017,06,10,04,37,0.80
2017,06,10,04,38,1.60
2017,06,10,04,39,1.50
2017,06,10,04,40,0.40
2017,06,10,04,41,0.00
2017,06,10,04,42,0.00
2017,06,10,04,43,0.00
2017,06,10,04,44,0.00
2017,06,10,04,45,0.90
2017,06,10,04,46,2.00
2017,06,10,04,47,2.80
2017,06,10,04,48,2.70
2017,06,10,04,49,2.80
2017,06,10,04,50,2.80
2017,06,10,04,51,2.80
2017,06,10,04,52,1.90
2017,06,10,04,53,1.50
2017,06,10,04,54,1.60
2017,06,10,04,55,1.00
2017,06,10,04,56,0.10
2017,06,10,04,57,0.20
2017,06,10,04,58,0.00
2017,06,10,04,59,0.00
2017,06,10,05,00,0.00
2017,06,10,05,01,0.70
2017,06,10,05,02,1.50
2017,06,10,05,03,1.90
2017,06,10,05,04,2.20
2017,06,10,05,05,3.40
2017,06,10,05,06,2.90
2017,06,10,05,07,2.80
2017,06,10,05,08,2.40
2017,06,10,05,09,1.50
2017,06,10,05,10,2.40
2017,06,10,05,11,2.80
2017,06,10,05,12,2.30
2017,06,10,05,13,2.10
2017,06,10,05,14,2.30
2017,06,10,05,15,3.60
2017,06,10,05,16,4.00
2017,06,10,05,17,4.00
2017,06,10,05,18,3.40
2017,06,10,05,19,3.20
2017,06,10,05,20,4.60
2017,06,10,05,21,5.30
2017,06,10,05,22,4.40
2017,06,10,05,23,5.10
2017,06,10,05,24,4.50
2017,06,10,05,25,5.50
2017,06,10,05,26,4.70
2017,06,10,05,27,4.20
2017,06,10,05,28,4.10
2017,06,10,05,29,3.90
2017,06,10,05,30,2.70
2017,06,10,05,31,1.80
2017,06,10,05,32,2.40
2017,06,10,05,33,1.50
2017,06,10,05,34,2.00
2017,06,10,05,35,2.30
2017,06,10,05,36,2.40
2017,06,10,05,37,2.90
2017,06,10,05,38,3.70
2017,06,10,05,39,2.80
2017,06,10,05,40,4.40
2017,06,10,05,41,4.20
2017,06,10,05,42,4.50
2017,06,10,05,43,3.70
2017,06,10,05,44,3.30
2017,06,10,05,45,2.40
2017,06,10,05,46,2.10
2017,06,10,05,47,2.60
2017,06,10,05,48,3.20
2017,06,10,05,49,2.50
2017,06,10,05,50,3.00
2017,06,10,05,51,3.60
2017,06,10,05,52,3.10
2017,06,10,05,53,2.80
2017,06,10,05,54,1.20
2017,06,10,05,55,1.20
2017,06,10,05,56,3.00
2017,06,10,05,57,2.20
2017,06,10,05,58,1.70
2017,06,10,05,59,2.40
2017,06,10,06,00,3.60
2017,06,10,06,01,3.00
2017,06,10,06,02,1.80
2017,06,10,06,03,1.80
2017,06,10,06,04,0.30
2017,06,10,06,05,0.50
2017,06,10,06,06,0.60
2017,06,10,06,07,0.00
2017,06,10,06,08,0.40
2017,06,10,06,09,0.10
2017,06,10,06,10,0.50
2017,06,10,06,11,0.70
2017,06,10,06,12,0.40
2017,06,10,06,13,1.00
2017,06,10,06,14,1.80
2017,06,10,06,15,2.10
2017,06,10,06,16,2.90
2017,06,10,06,17,3.10
2017,06,10,06,18,2.10
2017,06,10,06,19,2.10
2017,06,10,06,20,1.80
2017,06,10,06,21,2.50
2017,06,10,06,22,2.70
2017,06,10,06,23,1.50
2017,06,10,06,24,1.60
2017,06,10,06,25,1.80
2017,06,10,06,26,0.40
2017,06,10,06,27,1.20
2017,06,10,06,28,0.60
2017,06,10,06,29,0.50
2017,06,10,06,30,0.90
2017,06,10,06,31,0.50
2017,06,10,06,32,0.10
2017,06,10,06,33,1.20
2017,06,10,06,34,0.30
2017,06,10,06,35,0.00
2017,06,10,06,36,1.10
2017,06,10,06,37,1.50
2017,06,10,06,38,1.20
2017,06,10,06,39,1.00
2017,06,10,06,40,1.70
2017,06,10,06,41,1.70
2017,06,10,06,42,1.20
2017,06,10,06,43,0.20
2017,06,10,06,44,0.20
2017,06,10,06,45,0.90
2017,06,10,06,46,0.40
2017,06,10,06,47,0.00
2017,06,10,06,48,0.00
2017,06,10,06,49,0.00
2017,06,10,06,50,0.00
2017,06,10,06,51,1.80
2017,06,10,06,52,1.20
2017,06,10,06,53,0.20
2017,06,10,06,54,0.60
2017,06,10,06,55,0.60
2017,06,10,06,56,0.40
2017,06,10,06,57,1.00
2017,06,10,06,58,1.60
2017,06,10,06,59,2.10
2017,06,10,07,00,1.80
2017,06,10,07,01,1.00
2017,06,10,07,02,1.80
2017,06,10,07,03,1.30
2017,06,10,07,04,2.10
2017,06,10,07,05,2.60
2017,06,10,07,06,1.60
2017,06,10,07,07,1.70
2017,06,10,07,08,1.70
2017,06,10,07,09,0.90
2017,06,10,07,10,0.40
2017,06,10,07,11,0.50
2017,06,10,07,12,1.00
2017,06,10,07,13,0.10
2017,06,10,07,14,1.60
2017,06,10,07,15,1.10
2017,06,10,07,16,0.20
2017,06,10,07,17,0.10
2017,06,10,07,18,0.20
2017,06,10,07,19,0.00
2017,06,10,07,20,0.00
2017,06,10,07,21,0.00
2017,06,10,07,22,0.00
2017,06,10,07,23,0.30
2017,06,10,07,24,0.00
2017,06,10,07,25,0.00
2017,06,10,07,26,0.00
2017,06,10,07,27,0.50
2017,06,10,07,28,0.50
2017,06,10,07,29,0.10
2017,06,10,07,30,1.50
2017,06,10,07,31,0.50
2017,06,10,07,32,0.00
2017,06,10,07,33,0.00
2017,06,10,07,34,0.00
2017,06,10,07,35,0.00
2017,06,10,07,36,0.00
2017,06,10,07,37,0.00
2017,06,10,07,38,0.00
2017,06,10,07,39,0.00
2017,06,10,07,40,0.00
2017,06,10,07,41,0.00
2017,06,10,07,42,0.00
2017,06,10,07,43,0.00
2017,06,10,07,44,0.00
2017,06,10,07,45,0.00
2017,06,10,07,46,1.10
2017,06,10,07,47,2.60
2017,06,10,07,48,2.10
2017,06,10,07,49,2.00
2017,06,10,07,50,1.50
2017,06,10,07,51,2.40
2017,06,10,07,52,2.60
2017,06,10,07,53,2.10
2017,06,10,07,54,2.30
2017,06,10,07,55,1.90
2017,06,10,07,56,0.50
2017,06,10,07,57,0.40
2017,06,10,07,58,1.30
2017,06,10,07,59,2.10
2017,06,10,08,00,2.30
2017,06,10,08,01,0.20
2017,06,10,08,02,0.00
2017,06,10,08,03,0.00
2017,06,10,08,04,0.30
2017,06,10,08,05,0.90
2017,06,10,08,06,2.30
2017,06,10,08,07,1.90
2017,06,10,08,08,0.20
2017,06,10,08,09,0.00
2017,06,10,08,10,0.00
2017,06,10,08,11,1.10
2017,06,10,08,12,0.50
2017,06,10,08,13,1.10
2017,06,10,08,14,0.30
2017,06,10,08,15,1.20
2017,06,10,08,16,0.10
2017,06,10,08,17,0.00
2017,06,10,08,18,0.60
2017,06,10,08,19,1.10
2017,06,10,08,20,0.50
2017,06,10,08,21,1.10
2017,06,10,08,22,0.40
2017,06,10,08,23,0.40
2017,06,10,08,24,0.40
2017,06,10,08,25,0.60
2017,06,10,08,26,0.00
2017,06,10,08,27,0.20
2017,06,10,08,28,0.30
2017,06,10,08,29,1.40
2017,06,10,08,30,0.30
2017,06,10,08,31,0.70
2017,06,10,08,32,0.80
2017,06,10,08,33,2.30
2017,06,10,08,34,1.10
2017,06,10,08,35,0.20
2017,06,10,08,36,1.30
2017,06,10,08,37,0.20
2017,06,10,08,38,0.20
2017,06,10,08,39,0.80
2017,06,10,08,40,1.20
2017,06,10,08,41,2.40
2017,06,10,08,42,1.80
2017,06,10,08,43,1.50
2017,06,10,08,44,2.10
2017,06,10,08,45,1.80
2017,06,10,08,46,0.20
2017,06,10,08,47,1.80
2017,06,10,08,48,1.80
2017,06,10,08,49,0.60
2017,06,10,08,50,1.10
2017,06,10,08,51,2.50
2017,06,10,08,52,2.60
2017,06,10,08,53,2.70
2017,06,10,08,54,2.10
2017,06,10,08,55,1.60
2017,06,10,08,56,1.30
2017,06,10,08,57,0.50
2017,06,10,08,58,1.90
2017,06,10,08,59,2.10
2017,06,10,09,00,0.70
2017,06,10,09,01,0.20
2017,06,10,09,02,0.00
2017,06,10,09,03,0.00
2017,06,10,09,04,0.10
2017,06,10,09,05,0.50
2017,06,10,09,06,0.90
2017,06,10,09,07,2.40
2017,06,10,09,08,3.10
2017,06,10,09,09,2.80
2017,06,10,09,10,2.60
2017,06,10,09,11,1.80
2017,06,10,09,12,2.30
2017,06,10,09,13,1.60
2017,06,10,09,14,1.70
2017,06,10,09,15,0.40
2017,06,10,09,16,1.20
2017,06,10,09,17,2.40
2017,06,10,09,18,1.90
2017,06,10,09,19,4.10
2017,06,10,09,20,2.20
2017,06,10,09,21,1.40
2017,06,10,09,22,0.10
2017,06,10,09,23,0.10
2017,06,10,09,24,1.70
2017,06,10,09,25,1.30
2017,06,10,09,26,1.40
2017,06,10,09,27,0.80
2017,06,10,09,28,1.20
2017,06,10,09,29,0.70
2017,06,10,09,30,0.50
2017,06,10,09,31,0.00
2017,06,10,09,32,2.10
2017,06,10,09,33,0.50
2017,06,10,09,34,1.90
2017,06,10,09,35,1.20
2017,06,10,09,36,0.20
2017,06,10,09,37,1.50
2017,06,10,09,38,1.00
2017,06,10,09,39,2.20
2017,06,10,09,40,2.10
2017,06,10,09,41,2.30
2017,06,10,09,42,2.60
2017,06,10,09,43,3.80
2017,06,10,09,44,2.20
2017,06,10,09,45,2.50
2017,06,10,09,46,3.10
2017,06,10,09,47,3.10
2017,06,10,09,48,2.20
2017,06,10,09,49,1.50
2017,06,10,09,50,1.50
2017,06,10,09,51,1.80
2017,06,10,09,52,0.30
2017,06,10,09,53,1.70
2017,06,10,09,54,2.50
2017,06,10,09,55,4.70
2017,06,10,09,56,4.20
2017,06,10,09,57,3.10
2017,06,10,09,58,1.80
2017,06,10,09,59,3.80
2017,06,10,10,00,5.40
2017,06,10,10,01,6.10
2017,06,10,10,02,4.70
2017,06,10,10,03,3.30
2017,06,10,10,04,3.30
2017,06,10,10,05,5.60
2017,06,10,10,06,6.00
2017,06,10,10,07,2.80
2017,06,10,10,08,1.90
2017,06,10,10,09,2.10
2017,06,10,10,10,2.80
2017,06,10,10,11,1.40
2017,06,10,10,12,1.40
2017,06,10,10,13,1.50
2017,06,10,10,14,0.30
2017,06,10,10,15,0.50
2017,06,10,10,16,1.80
2017,06,10,10,17,3.70
2017,06,10,10,18,3.10
2017,06,10,10,19,2.40
2017,06,10,10,20,2.70
2017,06,10,10,21,2.90
2017,06,10,10,22,6.40
2017,06,10,10,23,4.50
2017,06,10,10,24,5.40
2017,06,10,10,25,4.30
2017,06,10,10,26,5.50
2017,06,10,10,27,4.60
2017,06,10,10,28,3.10
2017,06,10,10,29,2.60
2017,06,10,10,30,1.20
2017,06,10,10,31,1.60
2017,06,10,10,32,3.30
2017,06,10,10,33,3.10
2017,06,10,10,34,2.10
2017,06,10,10,35,2.00
2017,06,10,10,36,1.60
2017,06,10,10,37,1.50
2017,06,10,10,38,4.30
2017,06,10,10,39,3.80
2017,06,10,10,40,5.00
2017,06,10,10,41,5.50
2017,06,10,10,42,2.10
2017,06,10,10,43,4.10
2017,06,10,10,44,2.80
2017,06,10,10,45,1.80
2017,06,10,10,46,2.00
2017,06,10,10,47,3.00
2017,06,10,10,48,3.50
2017,06,10,10,49,2.10
2017,06,10,10,50,2.60
2017,06,10,10,51,4.20
2017,06,10,10,52,2.70
2017,06,10,10,53,4.20
2017,06,10,10,54,5.00
2017,06,10,10,55,2.70
2017,06,10,10,56,4.80
2017,06,10,10,57,2.30
2017,06,10,10,58,5.40
2017,06,10,10,59,3.50
2017,06,10,11,00,5.30
2017,06,10,11,01,3.20
2017,06,10,11,02,5.20
2017,06,10,11,03,3.70
2017,06,10,11,04,2.20
2017,06,10,11,05,2.70
2017,06,10,11,06,7.50
2017,06,10,11,07,8.20
2017,06,10,11,08,7.80
2017,06,10,11,09,8.20
2017,06,10,11,10,5.90
2017,06,10,11,11,5.90
2017,06,10,11,12,5.70
2017,06,10,11,13,6.80
2017,06,10,11,14,3.50
2017,06,10,11,15,1.00
2017,06,10,11,16,5.10
2017,06,10,11,17,7.10
2017,06,10,11,18,5.70
2017,06,10,11,19,5.90
2017,06,10,11,20,6.10
2017,06,10,11,21,5.00
2017,06,10,11,22,4.00
2017,06,10,11,23,2.60
2017,06,10,11,24,2.00
2017,06,10,11,25,1.40
2017,06,10,11,26,1.60
2017,06,10,11,27,0.20
2017,06,10,11,28,1.70
2017,06,10,11,29,3.40
2017,06,10,11,30,2.60
2017,06,10,11,31,5.30
2017,06,10,11,32,5.00
2017,06,10,11,33,2.40
2017,06,10,11,34,3.00
2017,06,10,11,35,4.20
2017,06,10,11,36,4.10
2017,06,10,11,37,2.50
2017,06,10,11,38,3.70
2017,06,10,11,39,3.10
2017,06,10,11,40,3.80
2017,06,10,11,41,1.50
2017,06,10,11,42,1.10
2017,06,10,11,43,3.90
2017,06,10,11,44,2.20
2017,06,10,11,45,4.10
2017,06,10,11,46,4.10
2017,06,10,11,47,2.70
2017,06,10,11,48,2.60
2017,06,10,11,49,2.50
2017,06,10,11,50,4.80
2017,06,10,11,51,4.30
2017,06,10,11,52,2.40
2017,06,10,11,53,2.30
2017,06,10,11,54,2.30
2017,06,10,11,55,3.10
2017,06,10,11,56,1.80
2017,06,10,11,57,2.00
2017,06,10,11,58,1.80
2017,06,10,11,59,6.30
2017,06,10,12,00,5.60
2017,06,10,12,01,6.00
2017,06,10,12,02,7.40
2017,06,10,12,03,4.90
2017,06,10,12,04,5.90
2017,06,10,12,05,4.40
2017,06,10,12,06,4.20
2017,06,10,12,07,1.20
2017,06,10,12,08,2.40
2017,06,10,12,09,3.20
2017,06,10,12,10,5.00
2017,06,10,12,11,1.20
2017,06,10,12,12,2.50
2017,06,10,12,13,4.00
2017,06,10,12,14,4.10
2017,06,10,12,15,5.70
2017,06,10,12,16,4.60
2017,06,10,12,17,4.80
2017,06,10,12,18,3.40
2017,06,10,12,19,5.70
2017,06,10,12,20,3.10
2017,06,10,12,21,4.80
2017,06,10,12,22,3.20
2017,06,10,12,23,6.40
2017,06,10,12,24,4.10
2017,06,10,12,25,2.10
2017,06,10,12,26,2.30
2017,06,10,12,27,5.10
2017,06,10,12,28,5.80
2017,06,10,12,29,5.10
2017,06,10,12,30,11.10
2017,06,10,12,31,7.50
2017,06,10,12,32,3.60
2017,06,10,12,33,5.60
2017,06,10,12,34,6.50
2017,06,10,12,35,2.10
2017,06,10,12,36,4.50
2017,06,10,12,37,9.40
2017,06,10,12,38,12.30
2017,06,10,12,39,10.00
2017,06,10,12,40,7.70
2017,06,10,12,41,5.10
2017,06,10,12,42,4.20
2017,06,10,12,43,3.50
2017,06,10,12,44,5.20
2017,06,10,12,45,7.10
2017,06,10,12,46,4.20
2017,06,10,12,47,7.70
2017,06,10,12,48,5.20
2017,06,10,12,49,5.30
2017,06,10,12,50,2.90
2017,06,10,12,51,2.40
2017,06,10,12,52,5.70
2017,06,10,12,53,8.40
2017,06,10,12,54,5.50
2017,06,10,12,55,4.30
2017,06,10,12,56,3.90
2017,06,10,12,57,3.90
2017,06,10,12,58,4.70
2017,06,10,12,59,6.10
2017,06,10,13,00,6.40
2017,06,10,13,01,3.40
2017,06,10,13,02,3.60
2017,06,10,13,03,2.90
2017,06,10,13,04,2.40
2017,06,10,13,05,4.70
2017,06,10,13,06,3.10
2017,06,10,13,07,5.30
2017,06,10,13,08,8.20
2017,06,10,13,09,5.90
2017,06,10,13,10,1.80
2017,06,10,13,11,1.60
2017,06,10,13,12,1.30
2017,06,10,13,13,1.30
2017,06,10,13,14,2.10
2017,06,10,13,15,3.60
2017,06,10,13,16,3.30
2017,06,10,13,17,3.10
2017,06,10,13,18,8.90
2017,06,10,13,19,5.80
2017,06,10,13,20,3.60
2017,06,10,13,21,6.80
2017,06,10,13,22,9.00
2017,06,10,13,23,9.70
2017,06,10,13,24,8.10
2017,06,10,13,25,6.30
2017,06,10,13,26,9.30
2017,06,10,13,27,8.20
2017,06,10,13,28,8.00
2017,06,10,13,29,5.10
2017,06,10,13,30,7.20
2017,06,10,13,31,5.40
2017,06,10,13,32,8.10
2017,06,10,13,33,8.30
2017,06,10,13,34,3.20
2017,06,10,13,35,4.30
2017,06,10,13,36,10.70
2017,06,10,13,37,15.60
2017,06,10,13,38,13.20
2017,06,10,13,39,15.70
2017,06,10,13,40,13.80
2017,06,10,13,41,16.30
2017,06,10,13,42,13.80
2017,06,10,13,43,16.50
2017,06,10,13,44,14.60
2017,06,10,13,45,9.80
2017,06,10,13,46,12.70
2017,06,10,13,47,15.60
2017,06,10,13,48,10.40
2017,06,10,13,49,8.30
2017,06,10,13,50,5.10
2017,06,10,13,51,6.50
2017,06,10,13,52,8.40
2017,06,10,13,53,11.00
2017,06,10,13,54,10.60
2017,06,10,13,55,6.40
2017,06,10,13,56,5.60
2017,06,10,13,57,6.70
2017,06,10,13,58,3.00
2017,06,10,13,59,4.30
2017,06,10,14,00,5.30
2017,06,10,14,01,1.40
2017,06,10,14,02,2.20
2017,06,10,14,03,6.20
2017,06,10,14,04,10.00
2017,06,10,14,05,10.20
2017,06,10,14,06,11.40
2017,06,10,14,07,3.40
2017,06,10,14,08,1.50
2017,06,10,14,09,4.70
2017,06,10,14,10,7.70
2017,06,10,14,11,2.60
2017,06,10,14,12,2.90
2017,06,10,14,13,8.90
2017,06,10,14,14,11.10
2017,06,10,14,15,9.50
2017,06,10,14,16,9.40
2017,06,10,14,17,5.80
2017,06,10,14,18,7.20
2017,06,10,14,19,8.80
2017,06,10,14,20,6.50
2017,06,10,14,21,4.60
2017,06,10,14,22,3.10
2017,06,10,14,23,5.40
2017,06,10,14,24,9.40
2017,06,10,14,25,5.80
2017,06,10,14,26,4.40
2017,06,10,14,27,7.30
2017,06,10,14,28,8.50
2017,06,10,14,29,8.40
2017,06,10,14,30,6.40
2017,06,10,14,31,6.30
2017,06,10,14,32,8.00
2017,06,10,14,33,5.20
2017,06,10,14,34,7.60
2017,06,10,14,35,4.10
2017,06,10,14,36,5.80
2017,06,10,14,37,2.60
2017,06,10,14,38,1.20
2017,06,10,14,39,2.20
2017,06,10,14,40,6.20
2017,06,10,14,41,6.80
2017,06,10,14,42,8.20
2017,06,10,14,43,7.00
2017,06,10,14,44,8.10
2017,06,10,14,45,11.00
2017,06,10,14,46,10.90
2017,06,10,14,47,10.10
2017,06,10,14,48,10.00
2017,06,10,14,49,8.90
2017,06,10,14,50,7.50
2017,06,10,14,51,15.40
2017,06,10,14,52,11.70
2017,06,10,14,53,10.80
2017,06,10,14,54,12.30
2017,06,10,14,55,10.50
2017,06,10,14,56,10.70
2017,06,10,14,57,12.40
2017,06,10,14,58,12.90
2017,06,10,14,59,12.20
2017,06,10,15,00,14.10
2017,06,10,15,01,8.50
2017,06,10,15,02,8.40
2017,06,10,15,03,11.70
2017,06,10,15,04,6.80
2017,06,10,15,05,12.30
2017,06,10,15,06,8.90
2017,06,10,15,07,12.10
2017,06,10,15,08,12.50
2017,06,10,15,09,12.70
2017,06,10,15,10,14.90
2017,06,10,15,11,13.20
2017,06,10,15,12,14.00
2017,06,10,15,13,8.80
2017,06,10,15,14,12.60
2017,06,10,15,15,9.40
2017,06,10,15,16,9.40
2017,06,10,15,17,7.10
2017,06,10,15,18,3.40
2017,06,10,15,19,3.90
2017,06,10,15,20,3.70
2017,06,10,15,21,6.30
2017,06,10,15,22,6.50
2017,06,10,15,23,7.90
2017,06,10,15,24,7.10
2017,06,10,15,25,6.50
2017,06,10,15,26,5.10
2017,06,10,15,27,3.60
2017,06,10,15,28,2.60
2017,06,10,15,29,3.40
2017,06,10,15,30,2.00
2017,06,10,15,31,2.80
2017,06,10,15,32,2.00
2017,06,10,15,33,3.30
2017,06,10,15,34,1.00
2017,06,10,15,35,2.10
2017,06,10,15,36,3.10
2017,06,10,15,37,4.00
2017,06,10,15,38,3.70
2017,06,10,15,39,4.70
2017,06,10,15,40,5.90
2017,06,10,15,41,4.30
2017,06,10,15,42,4.00
2017,06,10,15,43,3.10
2017,06,10,15,44,2.80
2017,06,10,15,45,2.00
2017,06,10,15,46,0.80
2017,06,10,15,47,2.30
2017,06,10,15,48,2.30
2017,06,10,15,49,2.60
2017,06,10,15,50,2.30
2017,06,10,15,51,3.00
2017,06,10,15,52,1.60
2017,06,10,15,53,2.40
2017,06,10,15,54,2.10
2017,06,10,15,55,1.50
2017,06,10,15,56,5.60
2017,06,10,15,57,5.20
2017,06,10,15,58,3.40
2017,06,10,15,59,3.90
2017,06,10,16,00,3.80
2017,06,10,16,01,5.70
2017,06,10,16,02,5.10
2017,06,10,16,03,5.40
2017,06,10,16,04,6.10
2017,06,10,16,05,6.20
2017,06,10,16,06,7.60
2017,06,10,16,07,7.80
2017,06,10,16,08,8.60
2017,06,10,16,09,5.20
2017,06,10,16,10,4.20
2017,06,10,16,11,5.70
2017,06,10,16,12,6.90
2017,06,10,16,13,6.90
2017,06,10,16,14,5.20
2017,06,10,16,15,3.10
2017,06,10,16,16,5.40
2017,06,10,16,17,4.90
2017,06,10,16,18,5.80
2017,06,10,16,19,5.10
2017,06,10,16,20,3.70
2017,06,10,16,21,4.60
2017,06,10,16,22,6.00
2017,06,10,16,23,6.00
2017,06,10,16,24,6.40
2017,06,10,16,25,4.70
2017,06,10,16,26,3.60
2017,06,10,16,27,2.60
2017,06,10,16,28,3.60
2017,06,10,16,29,6.70
2017,06,10,16,30,5.00
2017,06,10,16,31,5.80
2017,06,10,16,32,3.30
2017,06,10,16,33,1.30
2017,06,10,16,34,4.00
2017,06,10,16,35,5.10
2017,06,10,16,36,4.50
2017,06,10,16,37,6.90
2017,06,10,16,38,5.40
2017,06,10,16,39,3.30
2017,06,10,16,40,4.80
2017,06,10,16,41,2.30
2017,06,10,16,42,2.30
2017,06,10,16,43,5.40
2017,06,10,16,44,5.10
2017,06,10,16,45,2.30
2017,06,10,16,46,1.50
2017,06,10,16,47,2.30
2017,06,10,16,48,4.80
2017,06,10,16,49,1.90
2017,06,10,16,50,2.80
2017,06,10,16,51,3.10
2017,06,10,16,52,1.50
2017,06,10,16,53,0.20
2017,06,10,16,54,1.40
2017,06,10,16,55,3.10
2017,06,10,16,56,4.40
2017,06,10,16,57,1.70
2017,06,10,16,58,0.40
2017,06,10,16,59,1.80
2017,06,10,17,00,7.10
2017,06,10,17,01,9.00
2017,06,10,17,02,7.40
2017,06,10,17,03,5.40
2017,06,10,17,04,8.60
2017,06,10,17,05,9.00
2017,06,10,17,06,8.90
2017,06,10,17,07,3.30
2017,06,10,17,08,1.90
2017,06,10,17,09,6.30
2017,06,10,17,10,5.00
2017,06,10,17,11,4.90
2017,06,10,17,12,6.50
2017,06,10,17,13,6.40
2017,06,10,17,14,7.30
2017,06,10,17,15,8.30
2017,06,10,17,16,7.10
2017,06,10,17,17,6.30
2017,06,10,17,18,8.80
2017,06,10,17,19,8.40
2017,06,10,17,20,11.30
2017,06,10,17,21,9.20
2017,06,10,17,22,9.90
2017,06,10,17,23,7.00
2017,06,10,17,24,10.00
2017,06,10,17,25,8.70
2017,06,10,17,26,5.00
2017,06,10,17,27,8.30
2017,06,10,17,28,7.70
2017,06,10,17,29,9.50
2017,06,10,17,30,10.90
2017,06,10,17,31,6.50
2017,06,10,17,32,6.40
2017,06,10,17,33,7.40
2017,06,10,17,34,5.80
2017,06,10,17,35,7.20
2017,06,10,17,36,8.10
2017,06,10,17,37,7.40
2017,06,10,17,38,7.00
2017,06,10,17,39,4.00
2017,06,10,17,40,0.80
2017,06,10,17,41,2.50
2017,06,10,17,42,6.60
2017,06,10,17,43,5.10
2017,06,10,17,44,10.80
2017,06,10,17,45,9.40
2017,06,10,17,46,5.80
2017,06,10,17,47,8.00
2017,06,10,17,48,7.00
2017,06,10,17,49,9.40
2017,06,10,17,50,7.10
2017,06,10,17,51,5.40
2017,06,10,17,52,5.70
2017,06,10,17,53,8.90
2017,06,10,17,54,6.40
2017,06,10,17,55,7.60
2017,06,10,17,56,7.80
2017,06,10,17,57,5.40
2017,06,10,17,58,7.10
2017,06,10,17,59,6.80
2017,06,10,18,00,7.40
2017,06,10,18,01,8.80
2017,06,10,18,02,5.70
2017,06,10,18,03,6.60
2017,06,10,18,04,7.80